Weather in Yurkino

Russia / Yaroslavl Oblast     57°25′06″N   39°04′33″E
temp.,
°C
wind,
m/s
gust,
m/s
humid.,
%
clouds,
%
prec.,
mm/h
press.,
hPa
HPBL,
m
14 april, wed
wed1400:00+10sse3117174 0.0 1022176
03:00+10s415705 0.0 1021359
06:00+10sse3117393 0.0 1020262
09:00+14s41160100 0.0 1020398
12:00+18ssw51149100 0.0 10191361
15:00+19ssw4946100 0.0 10182083
18:00+17s2560100 0.0 1017112
21:00+12s276262 0.0 1018128
15 april, thu
thu1500:00+10w126948 0.0 101811
03:00+8n239478 0.0 101966
06:00+9nne3896100 0.0 1019371
09:00+9nne4789100 0.0 1020481
12:00+9ne5782100 0.0 1022612
15:00+9ne5878100 0.0 1022740
18:00+7ne51081100 0.0 1024769
21:00+5ne51384100 0.0 1025661
16 april, fri
fri1600:00+5ene51481100 0.0 1025620
03:00+4ene51385100 0.0 1026571
06:00+3ene51376100 0.0 1026514
09:00+5ene51064100 0.0 1027573
12:00+10ene585074 0.0 1027916
15:00+11ene5839100 0.0 10271155
18:00+10ene4943100 0.0 1028926
21:00+6ene4125758 0.0 1029411
17 april, sat
sat1700:00+4ene4136355 0.0 1030380
03:00+3ene4127123 0.0 1030311
06:00+2ene4127465 0.0 1032318
09:00+7ene59525 0.0 1032620
12:00+10ene57405 0.0 10311168
15:00+12ene56365 0.0 10311390
18:00+11ene37432 0.0 1030723
21:00+5ne28660 0.0 1031144
18 april, sun
sun1800:00+4ne28740 0.0 1032156
03:00+3ene27790 0.0 1032120
06:00+2ene26820 0.0 1032131
09:00+8ene36580 0.0 1032483
12:00+12ene45435 0.0 10321478
15:00+13ene45415 0.0 10311783
18:00+12ene364950 0.0 1031480
21:00+9ene3957100 0.0 1031335